STARLINK-36075 (66905 NORAD) Tracking and Keplerian Element Data

This shows tracking and keplerian element data for the satellite.

Feedback or suggestion? Click here.




ElementValue
Catalog66905
NameSTARLINK-36075
Epoch Orbit363
Epoch Day354.25003472
Epoch Year2025
RAAN36.0365
Inclination53.1577
Eccentricity0.0001182
Argument of Perigee85.8594
Mean Anonmoly189.9567
Mean Motion15.74220578
Decay Rate-0.00070794
L11 66905U 25283AD 25354.25003472 -.00070794 00000+0 -48247-3 0 9994
L22 66905 53.1577 36.0365 0001182 85.8594 189.9567 15.74220578 3638



Live tracking and technical data element details for STARLINK-36075 (NORAD 66905). STARLINK-36075 can be tracked NOW for your location showing map with azimuth and elevation plus other details from your city location.







IsCatalogInMostPopularTable: catalog: 66905, numindb: 21
Update: records affected: 1



GetName: 66905 STARLINK-36075

Hit Count: updated at: Sat, 11 Apr 2026 21:42:09 GMT